Regional Weather Roundup
Issued by NWS Little Rock, AR

Home | Current Version | Previous Version | Text Only | Print | Product List | Glossary On
Versions: 1 2 3 4 5 6 7 8 9 10 11 12 13 14 15 16 17 18 19 20 21 22 23 24 25 26 27 28 29 30 31 32 33 34 35 36 37 38 39 40 41 42 43 44 45 46 47 48 49 50
000
ASUS44 KLZK 251505
RWRLZK

WEATHER ROUNDUP FOR ARKANSAS
NATIONAL WEATHER SERVICE LITTLE ROCK AR
1000 AM CDT FRI JUL 25 2014

NOTE: "FAIR" INDICATES FEW OR NO CLOUDS BELOW 12,000 FEET WITH NO
SIGNIFICANT WEATHER AND/OR OBSTRUCTIONS TO VISIBILITY.

ARZ001-003-010-029-251600-
NORTHWEST ARKANSAS

CITY           SKY/WX    TMP DP  RH WIND       PRES   REMARKS
FAYETTEVILLE   PTSUNNY   77  71  82 S12       30.05F
FORT SMITH     PTSUNNY   81  72  74 S5        30.03F HX  85
HARRISON       SUNNY     76  68  76 S10       30.06F
BENTONVILLE    CLOUDY    77  70  78 SW12G17   30.05F
ROGERS         CLOUDY    80  69  69 S16       30.06S
SILOAM SPGS    CLOUDY    75  66  73 SW16G22   30.06S
HIGHFILL       CLOUDY    76  71  85 S13       30.05S
SPRINGDALE     PTSUNNY   79  70  73 SW13      30.07F
$$

ARZ004-005-016-251600-
NORTH CENTRAL ARKANSAS

CITY           SKY/WX    TMP DP  RH WIND       PRES   REMARKS
MTN HOME       SUNNY     75  62  64 S8        30.05F
$$

ARZ040-041-251600-
WEST CENTRAL ARKANSAS

CITY           SKY/WX    TMP DP  RH WIND       PRES   REMARKS
MENA           CLOUDY    81  72  74 CALM      30.09S
MOUNT IDA      PTSUNNY   76  66  71 SE3       30.06F
$$

ARZ009-017-025-026-028-251600-
NORTHEAST ARKANSAS

CITY           SKY/WX    TMP DP  RH WIND       PRES   REMARKS
CORNING        FAIR      73  64  73 S3        30.07F
NEWPORT        MOSUNNY   74  64  70 VRB6      30.08F
NW BLYTHEVILLE MOSUNNY   77  64  65 VRB3      30.06
$$

ARZ022-023-033-042-044-251600-
CENTRAL ARKANSAS

CITY           SKY/WX    TMP DP  RH WIND       PRES   REMARKS
LITTLE ROCK    MOSUNNY   77  62  59 SW3       30.08F
N LITTLE ROCK  MOSUNNY   75  65  70 S6        30.08F
JACKSONVILLE   SUNNY     77  64  63 VRB3      30.08F
SEARCY         MOSUNNY   77  64  63 VRB3      30.08F
HOT SPRINGS    MOSUNNY   77  63  61 SW5       30.09S
RUSSELLVILLE   MOSUNNY   77  66  68 VRB3      30.06F
CLINTON        FAIR      75  66  73 CALM      30.08F
$$

ARZ036-251600-
EAST ARKANSAS

CITY           SKY/WX    TMP DP  RH WIND       PRES   REMARKS
WEST MEMPHIS   SUNNY     76  65  68 SW3       30.06S
$$

ARZ050-053-066-070-073-251600-
SOUTHWEST ARKANSAS

CITY           SKY/WX    TMP DP  RH WIND       PRES   REMARKS
ARKADELPHIA    FAIR      78  66  66 NE3       30.08F
CAMDEN         SUNNY     79  63  57 CALM      30.07S
TEXARKANA      MOSUNNY   80  73  79 SE6       30.07R
EL DORADO      CLOUDY    79  66  64 E5        30.08R
DE QUEEN       PTSUNNY   78  71  79 SE5       30.05R
$$

ARZ056-057-069-251600-
SOUTHEAST ARKANSAS

CITY           SKY/WX    TMP DP  RH WIND       PRES   REMARKS
PINE BLUFF     SUNNY     76  62  62 S3        30.08S
STUTTGART      SUNNY     75  64  69 CALM      30.09S
MONTICELLO     SUNNY     79  61  53 CALM      30.07S

$$




USA.gov is the U.S. government's official web portal to all federal, state and local government web resources and services.